TimeCDT,TemperatureF,Dew PointF,Humidity,Sea Level PressureIn,VisibilityMPH,Wind Direction,Wind SpeedMPH,Gust SpeedMPH,PrecipitationIn,Events,Conditions,WindDirDegrees,DateUTC
12:15 AM,51.8,51.8,100,29.91,2.5,ESE,16.1,21.9,N/A,Rain-Thunderstorm,Light Rain,110,2013-05-27 05:15:00
12:35 AM,51.8,51.8,100,29.93,4.0,ESE,15.0,-,N/A,Rain-Thunderstorm,Light Rain,110,2013-05-27 05:35:00
12:55 AM,51.8,51.8,100,29.94,3.0,ESE,11.5,-,0.01,Rain-Thunderstorm,Light Thunderstorms and Rain,120,2013-05-27 05:55:00
1:15 AM,51.8,51.8,100,29.93,3.0,SE,27.6,32.2,N/A,Thunderstorm,Overcast,130,2013-05-27 06:15:00
1:35 AM,51.8,51.8,100,29.87,9.0,SE,26.5,31.1,N/A,Thunderstorm,Thunderstorm,130,2013-05-27 06:35:00
1:40 AM,51.8,51.8,100,29.85,9.0,SE,23.0,31.1,N/A,Thunderstorm,Thunderstorm,140,2013-05-27 06:40:00
4:25 AM,53.6,53.6,100,29.91,-9999.0,East,9.2,-,N/A,,Unknown,90,2013-05-27 09:25:00
4:30 AM,53.6,53.6,100,29.91,10.0,East,11.5,-,N/A,,Unknown,90,2013-05-27 09:30:00
4:35 AM,53.6,53.6,100,29.90,10.0,East,12.7,-,N/A,,Unknown,90,2013-05-27 09:35:00
5:10 AM,53.6,53.6,100,29.82,10.0,East,25.3,-,N/A,,Mostly Cloudy,90,2013-05-27 10:10:00
5:35 AM,51.8,51.8,100,29.82,10.0,East,15.0,29.9,N/A,,Overcast,90,2013-05-27 10:35:00
5:50 AM,51.8,51.8,100,29.81,6.0,East,20.7,-,N/A,,Overcast,80,2013-05-27 10:50:00
6:15 AM,51.8,51.8,100,29.80,1.8,East,15.0,21.9,N/A,,Overcast,80,2013-05-27 11:15:00
6:30 AM,51.8,51.8,100,29.80,1.2,East,10.4,-,N/A,,Overcast,100,2013-05-27 11:30:00
6:55 AM,53.6,53.6,100,29.84,0.8,ENE,3.5,-,N/A,,Overcast,60,2013-05-27 11:55:00
7:10 AM,53.6,53.6,100,29.84,1.5,NE,8.1,-,N/A,,Overcast,50,2013-05-27 12:10:00
7:30 AM,53.6,53.6,100,29.83,1.2,NNE,9.2,-,N/A,,Overcast,30,2013-05-27 12:30:00
7:50 AM,53.6,53.6,100,29.83,0.8,NNE,8.1,-,N/A,,Overcast,30,2013-05-27 12:50:00
8:10 AM,55.4,55.4,100,29.85,5.0,NNE,6.9,-,N/A,,Overcast,20,2013-05-27 13:10:00
8:30 AM,55.4,55.4,100,29.86,10.0,NNE,8.1,-,N/A,,Overcast,20,2013-05-27 13:30:00
8:50 AM,55.4,55.4,100,29.88,10.0,ENE,12.7,-,N/A,,Overcast,70,2013-05-27 13:50:00
9:10 AM,57.2,57.2,100,29.87,10.0,ENE,18.4,24.2,N/A,,Overcast,70,2013-05-27 14:10:00
9:30 AM,55.4,55.4,100,29.86,0.8,ENE,17.3,-,N/A,,Overcast,60,2013-05-27 14:30:00
9:55 AM,55.4,55.4,100,29.85,10.0,East,16.1,-,N/A,,Overcast,90,2013-05-27 14:55:00
10:10 AM,57.2,57.2,100,29.83,10.0,East,18.4,-,N/A,,Overcast,100,2013-05-27 15:10:00
10:35 AM,55.4,55.4,100,29.82,10.0,East,15.0,-,N/A,,Overcast,100,2013-05-27 15:35:00
10:50 AM,55.4,55.4,100,29.82,10.0,East,18.4,-,N/A,,Overcast,90,2013-05-27 15:50:00
11:15 AM,57.2,57.2,100,29.82,10.0,East,19.6,-,N/A,,Overcast,100,2013-05-27 16:15:00
11:30 AM,57.2,57.2,100,29.82,10.0,East,17.3,-,N/A,,Overcast,90,2013-05-27 16:30:00
11:55 AM,57.2,57.2,100,29.84,10.0,East,16.1,21.9,N/A,,Overcast,100,2013-05-27 16:55:00
12:10 PM,57.2,57.2,100,29.84,10.0,East,16.1,-,N/A,,Overcast,100,2013-05-27 17:10:00
12:30 PM,57.2,57.2,100,29.84,10.0,ESE,12.7,-,N/A,,Overcast,110,2013-05-27 17:30:00
12:55 PM,60.8,60.8,100,29.86,10.0,ESE,4.6,-,N/A,,Mostly Cloudy,120,2013-05-27 17:55:00
1:10 PM,60.8,60.8,100,29.85,10.0,South,10.4,-,N/A,,Overcast,170,2013-05-27 18:10:00
1:35 PM,62.6,62.6,100,29.84,10.0,SSE,10.4,-,N/A,,Overcast,150,2013-05-27 18:35:00
1:50 PM,64.4,64.4,100,29.84,10.0,SSE,12.7,-,N/A,,Mostly Cloudy,160,2013-05-27 18:50:00
2:15 PM,64.4,64.4,100,29.83,10.0,SSE,11.5,-,N/A,,Scattered Clouds,160,2013-05-27 19:15:00
2:30 PM,64.4,64.4,100,29.83,10.0,SSE,11.5,-,N/A,,Scattered Clouds,150,2013-05-27 19:30:00
2:50 PM,64.4,64.4,100,29.82,10.0,SSE,10.4,-,N/A,,Mostly Cloudy,160,2013-05-27 19:50:00
3:10 PM,64.4,64.4,100,29.82,10.0,South,10.4,-,N/A,,Mostly Cloudy,170,2013-05-27 20:10:00
3:30 PM,66.2,66.2,100,29.82,10.0,SSW,6.9,-,N/A,,Scattered Clouds,200,2013-05-27 20:30:00
3:50 PM,64.4,64.4,100,29.81,10.0,SSW,9.2,-,N/A,,Overcast,200,2013-05-27 20:50:00
4:10 PM,64.4,64.4,100,29.80,10.0,SSW,8.1,-,N/A,,Overcast,200,2013-05-27 21:10:00
4:30 PM,64.4,64.4,100,29.79,10.0,South,5.8,-,N/A,,Overcast,180,2013-05-27 21:30:00
4:50 PM,64.4,64.4,100,29.79,10.0,SSW,8.1,-,N/A,,Overcast,210,2013-05-27 21:50:00
5:15 PM,62.6,62.6,100,29.79,10.0,SW,5.8,-,N/A,,Overcast,230,2013-05-27 22:15:00
5:30 PM,62.6,62.6,100,29.80,10.0,South,5.8,-,N/A,,Overcast,180,2013-05-27 22:30:00
5:55 PM,64.4,64.4,100,29.80,10.0,SE,9.2,-,N/A,,Overcast,140,2013-05-27 22:55:00
6:10 PM,62.6,62.6,100,29.80,10.0,SE,9.2,-,N/A,,Overcast,140,2013-05-27 23:10:00
6:30 PM,64.4,64.4,100,29.79,10.0,East,5.8,-,N/A,,Mostly Cloudy,100,2013-05-27 23:30:00
6:50 PM,62.6,62.6,100,29.79,10.0,East,13.8,-,N/A,,Mostly Cloudy,90,2013-05-27 23:50:00
7:10 PM,60.8,60.8,100,29.78,10.0,East,17.3,-,N/A,,Overcast,90,2013-05-28 00:10:00
7:30 PM,59.0,59.0,100,29.77,10.0,East,16.1,-,N/A,,Overcast,90,2013-05-28 00:30:00
7:50 PM,59.0,59.0,100,29.76,10.0,East,18.4,23.0,N/A,,Overcast,90,2013-05-28 00:50:00
8:10 PM,57.2,57.2,100,29.76,10.0,East,19.6,-,N/A,,Overcast,100,2013-05-28 01:10:00
8:30 PM,57.2,57.2,100,29.76,10.0,East,18.4,24.2,N/A,,Overcast,90,2013-05-28 01:30:00
8:50 PM,57.2,57.2,100,29.77,10.0,East,17.3,-,N/A,,Overcast,100,2013-05-28 01:50:00
9:10 PM,57.2,57.2,100,29.78,10.0,ESE,13.8,-,N/A,,Overcast,110,2013-05-28 02:10:00
9:30 PM,55.4,55.4,100,29.78,10.0,East,17.3,-,N/A,,Overcast,100,2013-05-28 02:30:00
9:50 PM,55.4,55.4,100,29.77,10.0,East,18.4,-,N/A,,Overcast,80,2013-05-28 02:50:00
10:15 PM,55.4,55.4,100,29.77,10.0,East,20.7,26.5,N/A,,Overcast,80,2013-05-28 03:15:00
10:30 PM,55.4,55.4,100,29.76,10.0,East,23.0,26.5,N/A,,Overcast,90,2013-05-28 03:30:00
10:55 PM,55.4,55.4,100,29.75,10.0,East,20.7,28.8,N/A,,Overcast,100,2013-05-28 03:55:00
11:10 PM,55.4,55.4,100,29.75,10.0,ESE,13.8,24.2,N/A,,Overcast,110,2013-05-28 04:10:00
11:30 PM,55.4,55.4,100,29.74,10.0,ESE,16.1,19.6,N/A,,Overcast,120,2013-05-28 04:30:00
11:50 PM,55.4,55.4,100,29.75,10.0,East,16.1,-,N/A,,Overcast,100,2013-05-28 04:50:00